DateTime,F1_A11,F1_S11,BsB_S11,BsG_S11,BsR_S11,BbsB_S11,BbsG_S11,BbsR_S11,BaB_A11,BaG_A11,BaR_A11,T_S11,U_S11,P_S11,T1_A11
2016-10-08T00:00:00Z,0000380,20000600,,,,,,,,,,25.8,02.0,0673.5,34.6
2016-10-08T00:01:00Z,0000380,20000600,,,,,,,,,,25.8,02.0,0673.5,34.6
2016-10-08T00:02:00Z,0000380,20000600,,,,,,,,,,25.8,02.0,0673.5,34.6
2016-10-08T00:03:00Z,0000380,60000600,,,,,,,,,,25.8,02.0,0673.5,34.6
2016-10-08T00:04:00Z,0000380,40000600,0000.05,0000.00,0000.27,-000.28,0000.25,-000.06,-000.25,0000.16,0000.19,25.9,02.2,0674.5,34.6
2016-10-08T00:05:00Z,0000380,00000600,0000.05,0000.05,0000.24,-000.19,0000.23,-000.02,0000.10,-000.12,0000.26,25.9,02.2,0674.5,34.6
2016-10-08T00:06:00Z,0000380,00000600,-000.56,-000.20,0000.20,0000.72,0000.53,0000.41,0000.01,-000.11,-000.29,25.9,02.2,0674.5,34.6
2016-10-08T00:07:00Z,0000380,00000600,-000.32,0000.63,0000.50,0000.22,-000.11,0000.14,0000.11,-000.02,-000.15,25.9,02.2,0674.6,34.6
2016-10-08T00:08:00Z,0000380,00000600,0000.93,-000.16,-000.11,0000.58,0000.37,-000.13,-000.03,0000.30,0000.07,25.9,02.2,0674.5,34.6
2016-10-08T00:09:00Z,0000380,00000600,-000.38,0000.62,0000.27,0000.27,0000.00,0000.22,0000.16,-000.17,0000.18,26.0,02.2,0674.5,34.6
2016-10-08T00:10:00Z,0000380,00000600,0000.02,0000.15,0000.04,0000.44,0000.36,-000.33,-000.28,-000.05,-000.04,26.0,02.2,0674.6,34.6
2016-10-08T00:11:00Z,0000380,00000600,-000.66,0000.93,-000.15,0000.23,0000.03,-000.17,0000.08,0000.24,-000.04,26.0,02.1,0674.6,34.6
2016-10-08T00:12:00Z,0000380,00000600,0000.29,-000.02,0000.11,-000.16,0000.05,-000.06,0000.09,-000.05,0000.05,26.0,02.1,0674.6,34.6
2016-10-08T00:13:00Z,0000380,00000600,0000.55,0000.33,0000.73,0000.41,0000.06,-000.05,0000.03,-000.02,0000.11,26.0,02.1,0674.6,34.6
2016-10-08T00:14:00Z,0000380,00000600,0000.28,0000.79,-000.14,0000.55,0000.44,0000.11,0000.20,0000.08,-000.03,26.0,02.2,0674.6,34.6
2016-10-08T00:15:00Z,0000380,00000600,0000.00,0000.28,-000.16,0000.64,0000.34,0000.05,-000.10,-000.12,-000.12,26.0,02.2,0674.6,34.6
2016-10-08T00:16:00Z,0000380,00000600,0000.19,0000.82,0000.14,0000.19,0000.16,0000.27,0000.03,0000.17,-000.06,26.0,02.1,0674.6,34.6
2016-10-08T00:17:00Z,0000380,00000600,0000.07,0000.65,0000.24,-000.30,0000.51,0000.17,0000.03,-000.11,-000.07,25.9,02.1,0674.6,34.6
2016-10-08T00:18:00Z,0000380,00000600,0000.97,0000.07,0000.08,0000.42,0000.76,0000.13,-000.05,-000.16,0000.04,25.9,02.2,0674.6,34.6
2016-10-08T00:19:00Z,0000380,00000600,0000.68,0000.58,0000.12,-000.13,0000.44,0000.14,-000.06,0000.14,0000.06,26.0,02.1,0674.6,34.6
2016-10-08T00:20:00Z,0000380,00000600,0000.40,0000.70,0000.27,0000.34,0000.12,0000.05,0000.21,0000.15,0000.04,25.9,02.2,0674.6,34.6
2016-10-08T00:21:00Z,0000380,00000600,0000.58,0000.78,-000.12,0000.72,-000.05,-000.22,0000.11,-000.14,0000.02,25.9,02.2,0674.6,34.6
2016-10-08T00:22:00Z,0000380,00000600,0000.89,-000.09,0000.01,-000.44,0000.22,0000.20,0000.01,0000.09,-000.00,25.9,02.1,0674.6,34.6
2016-10-08T00:23:00Z,0000380,00000600,0000.49,-000.21,0000.25,0000.03,0000.61,0000.25,-000.25,-000.04,0000.23,25.9,02.1,0674.7,34.6
2016-10-08T00:24:00Z,0000380,00000600,0000.72,0000.48,-000.02,0000.20,0000.28,0000.16,0000.10,0000.06,-000.11,25.9,02.1,0674.6,34.6
2016-10-08T00:25:00Z,0000380,00000600,0000.57,0000.10,0000.27,0000.42,0000.14,0000.11,0000.07,-000.12,-000.04,25.9,02.1,0674.6,34.6
2016-10-08T00:26:00Z,0000380,00000600,0000.38,0000.51,0000.27,-000.11,0000.23,0000.20,-000.03,0000.07,0000.09,25.9,02.2,0674.6,34.6
2016-10-08T00:27:00Z,0000380,00000600,0000.34,0000.75,-000.10,0000.22,-000.17,0000.05,-000.05,-000.02,0000.13,25.8,02.2,0674.6,34.6
2016-10-08T00:28:00Z,0000380,00000600,-000.46,0000.17,0000.04,-000.23,0000.45,-000.13,0000.24,-000.02,0000.00,25.8,02.1,0674.6,34.6
2016-10-08T00:29:00Z,0000380,00000600,0000.13,0000.56,-000.08,0000.30,0000.53,0000.00,-000.13,-000.08,-000.43,25.8,02.2,0674.6,34.6
2016-10-08T00:30:00Z,0000380,00000600,0000.78,0000.18,0000.05,-000.22,0000.44,0000.41,0000.11,0000.04,0000.43,25.8,02.2,0674.6,34.6
2016-10-08T00:31:00Z,0000380,00000600,-000.09,0000.73,0000.12,0000.41,0000.67,0000.16,-000.22,0000.12,-000.21,25.8,02.2,0674.6,34.6
2016-10-08T00:32:00Z,0000380,00000600,0000.62,0000.39,-000.06,0000.31,0000.19,0000.16,0000.33,-000.06,0000.03,25.8,02.2,0674.6,34.6
2016-10-08T00:33:00Z,0000380,00000600,0000.29,0001.33,-000.29,-000.72,0000.47,-000.28,-000.11,-000.06,0000.16,25.8,02.2,0674.6,34.6
2016-10-08T00:34:00Z,0000380,00000600,-000.71,0000.13,-000.17,-000.34,0000.31,-000.09,-000.07,0000.17,0000.14,25.9,02.2,0674.6,34.6
2016-10-08T00:35:00Z,0000380,00000600,0000.75,0000.95,0000.26,-000.13,0000.47,-000.14,-000.22,-000.08,-000.54,25.9,02.2,0674.6,34.6
2016-10-08T00:36:00Z,0000380,00000600,-000.43,0000.57,0000.42,-000.58,0000.31,0000.16,0000.26,0000.19,0000.54,25.9,02.1,0674.6,34.6
2016-10-08T00:37:00Z,0000380,00000600,0000.00,0000.68,-000.08,-000.06,0000.20,0000.11,-000.03,0000.03,0000.16,25.9,02.2,0674.6,34.6
2016-10-08T00:38:00Z,0000380,00000600,-000.13,-000.06,-000.11,0000.17,0000.03,-000.13,0000.09,-000.00,0000.06,25.9,02.2,0674.6,34.6
2016-10-08T00:39:00Z,0000380,00000600,0000.46,0000.29,-000.27,0000.36,0000.25,0000.17,-000.04,-000.02,-000.52,25.9,02.1,0674.6,34.6
2016-10-08T00:40:00Z,0000380,00000600,0000.56,0001.55,-000.09,-000.14,0000.40,0000.00,0000.17,-000.06,0000.44,25.9,02.2,0674.6,34.6
2016-10-08T00:41:00Z,0000380,00000600,0000.37,0000.45,-000.15,0000.61,0000.45,-000.22,0000.04,0000.02,-000.14,25.9,02.2,0674.6,34.6
2016-10-08T00:42:00Z,0000380,00000600,-000.58,0000.86,0000.17,-000.17,-000.11,0000.00,-000.01,0000.20,-000.15,25.9,02.1,0674.6,34.6
2016-10-08T00:43:00Z,0000380,00000600,0001.11,0000.53,-000.11,0000.00,0000.33,-000.09,0000.04,-000.13,0000.32,25.9,02.2,0674.5,34.6
2016-10-08T00:44:00Z,0000380,00000600,0000.23,0000.49,0000.29,0000.63,0000.34,-000.03,-000.18,0000.19,-000.10,25.9,02.2,0674.5,34.6
2016-10-08T00:45:00Z,0000380,00000600,-000.12,0000.29,0000.03,0000.78,0000.22,0000.09,0000.01,-000.22,-000.07,25.9,02.2,0674.5,34.6
2016-10-08T00:46:00Z,0000380,00000600,0001.14,0000.15,0000.07,-000.17,0000.30,0000.20,0000.05,0000.19,0000.14,25.9,02.2,0674.5,34.6
2016-10-08T00:47:00Z,0000380,00000600,0000.43,0000.58,0000.18,0000.23,0000.53,0000.16,-000.13,-000.13,-000.02,25.9,02.1,0674.5,34.6
2016-10-08T00:48:00Z,0000380,00000600,0000.79,0001.33,-000.05,-000.20,0000.22,0000.09,0000.10,0000.07,0000.13,25.9,02.1,0674.5,34.6
2016-10-08T00:49:00Z,0000380,00000600,0000.56,0000.20,-000.02,0000.34,0000.20,-000.09,0000.05,-000.17,-000.00,25.9,02.2,0674.5,34.6
2016-10-08T00:50:00Z,0000380,00000600,0000.64,0000.75,-000.59,0000.23,0000.23,-000.22,0000.15,0000.12,-000.48,25.9,02.2,0674.5,34.6
2016-10-08T00:51:00Z,0000380,00000600,0000.53,0001.50,0000.20,-000.25,0000.76,0000.17,-000.18,-000.02,0000.19,25.8,02.2,0674.5,34.6
2016-10-08T00:52:00Z,0000380,00000600,0000.59,0000.77,0000.43,-000.22,0000.50,-000.06,0000.04,0000.09,0000.05,25.9,02.2,0674.5,34.6
2016-10-08T00:53:00Z,0000380,00000600,-000.38,0000.02,0000.10,-000.42,0000.54,-000.08,0000.02,-000.12,-000.13,25.8,02.1,0674.5,34.6
2016-10-08T00:54:00Z,0000380,00000600,-000.70,0000.29,0000.36,0000.19,0000.44,-000.05,-000.13,0000.07,-000.09,25.8,02.3,0674.5,34.6
2016-10-08T00:55:00Z,0000380,00000600,-000.14,0000.37,0000.34,0000.09,0000.40,-000.16,0000.15,-000.07,0000.07,25.8,02.2,0674.5,34.6
2016-10-08T00:56:00Z,0000380,00000600,0000.48,-000.27,-000.03,-000.16,0000.12,0000.39,0000.23,0000.06,0000.48,25.8,02.2,0674.5,34.6
2016-10-08T00:57:00Z,0000380,40000600,,,,,,,,,,,,0674.6,34.6
2016-10-08T00:58:00Z,0000380,60000600,,,,,,,,,,25.8,02.1,0673.3,34.6
2016-10-08T00:59:00Z,0000380,20000600,,,,,,,,,,25.8,02.1,0673.3,34.6
2016-10-08T01:00:00Z,0000380,20000600,,,,,,,,,,25.8,02.0,0673.3,34.6
2016-10-08T01:01:00Z,0000380,20000600,,,,,,,,,,25.8,02.0,0673.3,34.6
2016-10-08T01:02:00Z,0000380,20000600,,,,,,,,,,25.8,02.0,0673.3,34.6
2016-10-08T01:03:00Z,0000380,60000600,,,,,,,,,,25.8,02.0,0673.3,34.6
2016-10-08T01:04:00Z,0000380,40000600,0000.54,-000.04,0000.58,0000.33,-000.31,0000.64,-000.23,0000.07,-000.12,25.8,02.1,0674.3,34.6
2016-10-08T01:05:00Z,0000380,00000600,-000.01,0000.06,0000.61,0001.25,0000.02,0000.36,0000.11,0000.05,-000.08,25.9,02.2,0674.4,34.6
2016-10-08T01:06:00Z,0000380,00000600,0001.04,-000.06,0000.70,0000.41,-000.28,-000.08,-000.04,-000.03,0000.26,25.9,02.1,0674.4,34.6
2016-10-08T01:07:00Z,0000380,00000600,0000.99,0000.27,0000.37,0000.74,-000.23,0000.34,0000.33,0000.00,-000.25,25.9,02.1,0674.4,34.6
2016-10-08T01:08:00Z,0000380,00000600,0000.08,-000.13,0000.43,0000.34,0000.17,0000.31,0000.07,-000.01,0000.23,26.0,02.1,0674.4,34.6
2016-10-08T01:09:00Z,0000380,00000600,-000.18,-000.13,0000.00,0000.28,-000.22,-000.17,-000.49,0000.20,0000.16,26.0,02.1,0674.4,34.6
2016-10-08T01:10:00Z,0000380,00000600,0000.41,0000.59,0000.10,0000.27,-000.02,0000.28,0000.04,-000.17,-000.43,26.0,02.0,0674.4,34.6
2016-10-08T01:11:00Z,0000380,00000600,0000.02,0000.09,0000.16,0000.45,0000.08,0000.16,-000.00,0000.10,0000.25,26.0,02.0,0674.4,34.6
2016-10-08T01:12:00Z,0000380,00000600,-000.11,0000.37,0000.13,0000.63,0000.02,-000.20,-000.01,-000.06,-000.08,26.0,02.1,0674.4,34.6
2016-10-08T01:13:00Z,0000380,00000600,-000.02,-000.12,0000.47,-000.13,-000.02,0000.50,0000.02,0000.04,-000.17,26.0,02.0,0674.4,34.6
2016-10-08T01:14:00Z,0000380,00000600,-001.39,-000.27,-000.09,0000.91,-000.30,0000.17,0000.12,0000.06,-000.21,26.0,02.0,0674.4,34.6
2016-10-08T01:15:00Z,0000380,00000600,0000.39,0000.52,0000.21,0000.45,0000.11,0000.16,-000.04,-000.16,0000.18,26.0,01.9,0674.4,34.6
2016-10-08T01:16:00Z,0000380,00000600,0000.38,0000.41,0000.16,0000.13,-000.31,0000.39,0000.35,0000.05,0000.47,26.0,01.9,0674.3,34.6
2016-10-08T01:17:00Z,0000380,00000600,0001.02,-000.15,0000.82,0001.00,0000.22,0000.44,-000.22,0000.03,-000.38,26.0,01.9,0674.3,34.6
2016-10-08T01:18:00Z,0000380,00000600,-000.20,0000.33,0000.44,0000.34,-000.33,0000.13,-000.13,0000.01,-000.09,26.0,01.9,0674.3,34.6
2016-10-08T01:19:00Z,0000380,00000600,0001.34,0000.15,0000.68,0000.58,-000.23,0000.41,0000.16,-000.03,0000.06,26.0,01.9,0674.3,34.6
2016-10-08T01:20:00Z,0000380,00000600,-000.57,-000.02,0000.23,-000.14,-000.12,0000.00,-000.02,0000.22,0000.06,26.0,01.9,0674.3,34.6
2016-10-08T01:21:00Z,0000380,00000600,0000.65,-000.04,0000.52,0001.08,0000.09,-000.03,-000.07,-000.24,0000.03,26.0,01.8,0674.3,34.6
2016-10-08T01:22:00Z,0000380,00000600,0000.09,-000.27,-000.12,-000.05,-000.25,0000.31,-000.04,0000.15,-000.17,25.9,01.7,0674.3,34.6
2016-10-08T01:23:00Z,0000380,00000600,0000.57,0000.35,0000.12,0000.58,-000.09,-000.06,0000.14,-000.05,-000.17,26.0,01.8,0674.3,34.6
2016-10-08T01:24:00Z,0000380,00000600,0000.24,0000.44,0000.73,0000.69,0000.05,0000.20,-000.03,0000.10,0000.29,25.9,01.7,0674.3,34.6
2016-10-08T01:25:00Z,0000380,00000600,0000.28,0000.20,0000.32,0000.47,0000.26,0000.14,0000.10,-000.13,-000.06,25.9,01.7,0674.3,34.6
2016-10-08T01:26:00Z,0000380,00000600,-000.09,0000.17,0000.06,0001.13,0000.02,-000.08,-000.06,-000.10,-000.13,25.9,01.8,0674.2,34.6
2016-10-08T01:27:00Z,0000380,00000600,0000.12,0000.10,0000.67,-000.47,0000.25,0000.47,-000.11,0000.11,-000.21,25.9,01.7,0674.2,34.6
2016-10-08T01:28:00Z,0000380,00000600,0000.38,-000.02,-000.08,0000.16,0000.26,-000.08,0000.09,0000.02,0000.20,25.9,01.7,0674.2,34.6
2016-10-08T01:29:00Z,0000380,00000600,-001.28,0000.85,0000.39,0000.99,0000.23,0000.25,0000.07,-000.08,-000.05,25.9,01.7,0674.2,34.6
2016-10-08T01:30:00Z,0000380,00000600,-000.18,0000.49,0000.66,0000.50,-000.41,0000.70,-000.01,-000.05,0000.17,25.9,01.7,0674.2,34.6
2016-10-08T01:31:00Z,0000380,01000600,-000.06,0000.14,0000.61,0000.25,0000.02,-000.25,0000.05,0000.15,-000.21,25.9,01.6,0674.2,34.6
2016-10-08T01:32:00Z,0000380,00000600,0000.83,-000.08,0000.33,0000.47,-000.42,0000.28,0000.00,-000.04,-000.06,25.9,01.6,0674.2,34.6
2016-10-08T01:33:00Z,0000380,00000600,0000.26,-000.40,0001.17,0000.23,-000.30,0000.22,-000.04,-000.04,-000.17,25.9,01.5,0674.2,34.6
2016-10-08T01:34:00Z,0000380,00000600,0000.97,0000.64,-000.12,0000.50,0000.16,0000.16,0000.09,-000.02,0000.26,25.8,01.6,0674.2,34.6
2016-10-08T01:35:00Z,0000380,00000600,-000.47,0000.39,0000.90,0001.05,-000.22,0000.38,0000.09,-000.12,0000.14,25.9,01.5,0674.2,34.6
2016-10-08T01:36:00Z,0000380,00000600,-000.34,0001.02,0000.24,0000.99,0000.22,0000.27,0000.01,-000.00,-000.21,25.8,01.4,0674.2,34.6
2016-10-08T01:37:00Z,0000380,01000600,0000.24,-000.26,0000.43,-000.05,-000.17,0000.25,-000.19,0000.16,-000.24,25.9,01.4,0674.2,34.6
2016-10-08T01:38:00Z,0000380,01000600,-000.34,-000.41,0000.54,0000.69,-000.23,0000.19,-000.02,-000.20,0000.35,25.8,01.4,0674.2,34.6
2016-10-08T01:39:00Z,0000380,01000600,0000.19,-000.19,0000.43,0000.34,-000.22,0000.00,0000.10,0000.13,-000.31,25.8,01.3,0674.2,34.6
2016-10-08T01:40:00Z,0000380,01000600,-001.03,0001.08,0000.48,0000.84,0000.03,0000.16,0000.06,0000.03,0000.06,25.9,01.3,0674.2,34.6
2016-10-08T01:41:00Z,0000380,01000600,0000.83,-000.31,0000.02,0000.67,0000.06,-000.05,0000.04,-000.00,-000.14,25.8,01.3,0674.2,34.6
2016-10-08T01:42:00Z,0000380,01000600,0000.24,0000.08,0000.91,0000.78,-000.22,-000.27,-000.09,-000.01,0000.06,25.9,01.2,0674.1,34.6
2016-10-08T01:43:00Z,0000380,01000600,0000.22,-000.20,0000.75,0001.22,0000.19,0000.28,0000.14,-000.03,-000.23,25.9,01.2,0674.2,34.6
2016-10-08T01:44:00Z,0000380,01000600,0000.44,0000.00,0000.41,-000.06,0000.12,0000.44,0000.07,0000.18,0000.40,25.8,01.2,0674.2,34.6
2016-10-08T01:45:00Z,0000380,01000600,-000.64,-000.69,0000.18,0000.47,-000.08,0000.20,0000.05,-000.01,-000.18,25.9,01.1,0674.2,34.6
2016-10-08T01:46:00Z,0000380,01000600,0000.68,0001.24,0000.56,0000.91,-000.09,-000.09,-000.16,-000.10,-000.03,25.8,01.1,0674.1,34.6
2016-10-08T01:47:00Z,0000380,01000600,-000.09,-000.16,0000.17,0000.47,-000.44,0000.03,0000.15,-000.09,-000.11,25.8,01.1,0674.1,34.6
2016-10-08T01:48:00Z,0000380,01000600,0000.15,0000.27,0000.84,0000.70,0000.05,0000.25,-000.12,0000.24,0000.06,25.8,01.1,0674.1,34.6
2016-10-08T01:49:00Z,0000380,01000600,0000.26,-000.44,0000.15,0000.02,-000.23,0000.06,0000.10,-000.15,-000.05,25.8,01.0,0674.1,34.6
2016-10-08T01:50:00Z,0000380,01000600,-000.43,-000.66,0000.06,-000.22,-000.09,0000.55,-000.00,0000.08,0000.00,25.8,01.0,0674.1,34.6
2016-10-08T01:51:00Z,0000380,01000600,0000.62,0000.12,0000.36,0000.84,-000.37,0000.17,0000.09,0000.07,-000.08,25.8,01.0,0674.1,34.6
2016-10-08T01:52:00Z,0000380,01000600,-000.24,0000.21,0000.61,0000.23,-000.50,-000.16,-000.06,-000.11,0000.21,25.8,00.9,0674.1,34.6
2016-10-08T01:53:00Z,0000380,01000600,-000.92,-000.95,-000.31,0000.36,-000.03,-000.06,0000.00,-000.11,0000.00,25.8,00.9,0674.1,34.6
2016-10-08T01:54:00Z,0000380,01000600,0000.18,0000.12,0000.50,0000.56,-000.20,0000.19,-000.01,0000.02,-000.14,25.8,01.0,0674.1,34.6
2016-10-08T01:55:00Z,0000380,01000600,0000.66,0000.20,0000.16,0000.64,-000.26,0000.23,-000.13,0000.11,0000.10,25.8,00.9,0674.1,34.6
2016-10-08T01:56:00Z,0000380,01000600,0000.12,0000.23,-000.45,0000.23,0000.00,-000.11,0000.08,-000.18,-000.06,25.8,00.8,0674.1,34.6
2016-10-08T01:57:00Z,0000380,41000600,,,,,,,,,,,,0673.9,34.6
2016-10-08T01:58:00Z,0000380,61000600,,,,,,,,,,25.8,01.1,0673.0,34.6
2016-10-08T01:59:00Z,0000380,20000600,,,,,,,,,,25.8,01.0,0673.0,34.6
2016-10-08T02:00:00Z,0000380,20000600,,,,,,,,,,25.8,01.0,0673.0,34.6
2016-10-08T02:01:00Z,0000380,20000600,,,,,,,,,,25.8,01.0,0673.0,34.6
2016-10-08T02:02:00Z,0000380,21000600,,,,,,,,,,25.8,00.9,0673.0,34.6
2016-10-08T02:03:00Z,0000380,61000600,,,,,,,,,,25.8,00.8,0673.0,34.6
2016-10-08T02:04:00Z,0000380,41000600,0000.82,0000.11,0000.24,-000.14,-000.41,0000.41,0000.03,0000.02,0000.13,25.8,00.7,0674.0,34.6
2016-10-08T02:05:00Z,0000380,01000600,0000.11,-000.06,-000.12,-000.02,0000.06,0000.19,0000.00,0000.11,0000.14,25.8,00.7,0674.1,34.6
2016-10-08T02:06:00Z,0000380,01000600,-000.26,0000.16,0000.04,-000.33,-000.37,0000.14,0000.10,0000.05,-000.37,25.8,00.7,0674.0,34.6
2016-10-08T02:07:00Z,0000380,01000600,0000.63,-000.03,-000.14,0000.33,-000.12,0000.08,-000.11,-000.02,-000.07,25.8,00.7,0674.0,34.6
2016-10-08T02:08:00Z,0000380,01000600,0000.15,-000.05,0000.10,0000.13,-000.30,0000.13,0000.04,-000.11,-000.18,25.8,00.7,0674.0,34.6
2016-10-08T02:09:00Z,0000380,01000600,0000.49,0000.37,-000.36,-000.44,-000.16,-000.13,-000.05,-000.12,0000.03,25.8,00.7,0674.0,34.6
2016-10-08T02:10:00Z,0000380,01000600,0000.06,0000.36,0000.38,-000.61,-000.31,0000.13,0000.01,0000.13,0000.27,25.8,00.7,0674.0,34.6
2016-10-08T02:11:00Z,0000380,01000600,0000.31,-000.01,-000.04,-000.11,-000.20,-000.16,-000.01,0000.08,-000.12,25.8,00.6,0674.0,34.6
2016-10-08T02:12:00Z,0000380,01000600,0000.79,-000.44,0000.14,-000.20,0000.02,-000.23,0000.13,-000.12,0000.35,25.8,00.7,0674.0,34.6
2016-10-08T02:13:00Z,0000380,01000600,-000.27,0000.33,0000.36,-000.14,-000.34,0000.36,-000.16,0000.13,-000.23,25.8,00.6,0674.0,34.6
2016-10-08T02:14:00Z,0000380,01000600,-000.72,-000.32,0000.04,-000.23,-000.02,-000.20,0000.01,-000.03,0000.12,25.8,00.6,0674.0,34.6
2016-10-08T02:15:00Z,0000380,01000600,0000.80,0000.47,0000.02,0000.49,-000.03,-000.36,0000.13,0000.09,-000.33,25.8,00.7,0674.0,34.6
2016-10-08T02:16:00Z,0000380,01000600,0000.51,0000.02,0000.33,0000.61,0000.06,-000.19,-000.11,-000.18,0000.40,25.8,00.6,0674.0,34.6
2016-10-08T02:17:00Z,0000380,01000600,0000.29,-000.05,0000.02,-000.53,-000.06,0000.16,0000.23,-000.00,-000.34,25.8,00.6,0674.0,34.6
2016-10-08T02:18:00Z,0000380,01000600,0000.18,-000.12,-000.15,0000.05,0000.17,0000.11,0000.01,0000.14,0000.16,25.8,00.6,0673.9,34.6
2016-10-08T02:19:00Z,0000380,01000600,0001.85,-000.16,-000.41,0000.11,0000.02,-000.42,-000.24,-000.01,0000.05,25.8,00.6,0673.9,34.6
2016-10-08T02:20:00Z,0000380,01000600,0001.26,-000.55,0000.03,-000.25,-000.03,-000.11,-000.09,-000.02,0000.13,25.8,00.6,0673.9,34.6
2016-10-08T02:21:00Z,0000380,01000600,-000.22,0000.21,-000.52,-000.95,0000.12,-000.23,0000.34,-000.09,-000.24,25.8,00.6,0673.9,34.6
2016-10-08T02:22:00Z,0000380,01000600,0000.40,0000.13,-000.23,0000.08,-000.31,-000.20,-000.23,-000.02,0000.12,25.9,00.6,0673.9,34.6
2016-10-08T02:23:00Z,0000380,01000600,-000.22,0000.06,-000.12,-000.11,-000.14,-000.24,0000.17,0000.08,-000.11,25.9,00.5,0673.9,34.6
2016-10-08T02:24:00Z,0000380,01000600,-000.36,0000.24,-000.03,-000.19,0000.08,-000.06,-000.09,-000.11,-000.28,25.9,00.5,0673.9,34.6
2016-10-08T02:25:00Z,0000380,01000600,0000.79,-000.46,0000.05,0000.19,-000.02,0000.22,-000.09,0000.01,-000.08,25.9,00.5,0673.9,34.6
2016-10-08T02:26:00Z,0000380,01000600,0000.98,-000.11,0000.43,-000.70,-000.08,0000.05,-000.06,0000.08,0000.44,25.9,00.6,0673.9,34.6
2016-10-08T02:27:00Z,0000380,01000600,0000.59,0000.44,0000.09,-000.06,-000.36,0000.22,0000.03,0000.01,-000.11,25.8,00.5,0673.8,34.6
2016-10-08T02:28:00Z,0000380,01000600,0000.56,-000.26,-000.08,-000.13,0000.06,0000.02,0000.09,0000.04,0000.18,25.9,00.4,0673.8,34.6
2016-10-08T02:29:00Z,0000380,01000600,-000.54,0000.77,0000.19,-000.41,-000.12,0000.03,-000.14,0000.02,-000.35,25.8,00.5,0673.8,34.6
2016-10-08T02:30:00Z,0000380,01000600,0000.25,-000.22,-000.16,-000.17,-000.16,0000.28,-000.01,-000.14,0000.21,25.9,00.6,0673.8,34.6
2016-10-08T02:31:00Z,0000380,01000600,0000.68,0000.18,-000.03,0000.33,-000.16,0000.02,-000.09,-000.09,0000.10,25.9,00.5,0673.8,34.6
2016-10-08T02:32:00Z,0000380,01000600,0000.55,0000.17,0000.25,0000.39,0000.03,-000.02,0000.13,0000.10,-000.12,25.9,00.5,0673.8,34.6
2016-10-08T02:33:00Z,0000380,01000600,0001.06,0000.48,-000.29,0000.25,-000.12,-000.05,0000.14,0000.07,-000.26,25.8,00.6,0673.8,34.6
2016-10-08T02:34:00Z,0000380,01000600,0000.35,0000.11,0000.07,0000.00,0000.12,-000.14,-000.02,-000.05,0000.53,25.8,00.5,0673.7,34.6
2016-10-08T02:35:00Z,0000380,01000600,0000.37,0000.06,0000.12,0000.06,0000.03,-000.22,-000.22,0000.05,-000.49,25.8,00.5,0673.7,34.6
2016-10-08T02:36:00Z,0000380,01000600,-000.21,0000.06,-000.19,0000.03,0000.27,0000.11,0000.13,0000.02,0000.16,25.8,00.5,0673.7,34.6
2016-10-08T02:37:00Z,0000380,01000600,0000.38,0000.55,-000.14,-000.19,-000.37,-000.03,-000.10,-000.03,0000.07,25.8,00.5,0673.7,34.6
2016-10-08T02:38:00Z,0000380,01000600,0000.14,0000.59,0000.39,0000.77,-000.42,0000.22,0000.18,0000.05,-000.21,25.8,00.4,0673.7,34.6
2016-10-08T02:39:00Z,0000380,01000600,0000.53,0000.40,-000.09,0000.13,-000.09,-000.49,-000.07,-000.19,-000.15,25.8,00.5,0673.7,34.6
2016-10-08T02:40:00Z,0000380,01000600,-000.18,0000.00,0000.22,-000.06,-000.19,0000.06,-000.24,0000.16,-000.04,25.8,00.6,0673.7,34.6
2016-10-08T02:41:00Z,0000380,01000600,-000.71,0000.17,-000.36,-000.22,-000.39,-000.09,0000.20,0000.03,0000.37,25.8,00.5,0673.7,34.6
2016-10-08T02:42:00Z,0000380,01000600,-000.36,-000.07,-000.10,0000.44,-000.37,0000.11,-000.04,-000.09,0000.04,25.8,00.6,0673.6,34.6
2016-10-08T02:43:00Z,0000380,01000600,0000.36,-000.28,0000.22,0000.56,-000.28,0000.20,0000.05,0000.07,-000.21,25.8,00.6,0673.7,34.6
2016-10-08T02:44:00Z,0000380,01000600,0000.73,0000.76,-000.50,0000.23,0000.33,-000.27,0000.11,-000.09,0000.00,25.8,00.6,0673.6,34.6
2016-10-08T02:45:00Z,0000380,01000600,0000.45,0000.47,0000.61,0000.31,0000.08,0000.08,0000.15,0000.11,0000.15,25.8,00.5,0673.6,34.6
2016-10-08T02:46:00Z,0000380,01000600,0000.36,0000.45,-000.43,-000.31,-000.14,-000.06,-000.08,-000.02,0000.09,25.8,00.6,0673.6,34.6
2016-10-08T02:47:00Z,0000380,01000600,0000.48,0000.72,-000.44,0000.09,0000.05,-000.13,-000.05,0000.10,-000.01,25.8,00.7,0673.6,34.6
2016-10-08T02:48:00Z,0000380,01000600,0000.35,0000.21,0000.02,0000.17,-000.08,0000.02,0000.07,-000.03,-000.09,25.8,00.6,0673.6,34.6
2016-10-08T02:49:00Z,0000380,01000600,0000.70,-000.10,0000.09,-000.70,-000.16,-000.30,-000.02,0000.00,0000.01,25.8,00.6,0673.6,34.6
2016-10-08T02:50:00Z,0000380,01000600,0000.53,-000.07,-000.04,0000.80,-000.67,-000.11,0000.13,0000.05,0000.17,25.8,00.7,0673.6,34.6
2016-10-08T02:51:00Z,0000380,01000600,0000.50,-000.06,0000.04,0000.16,-000.36,0000.11,-000.06,0000.16,0000.20,25.8,00.6,0673.6,34.6
2016-10-08T02:52:00Z,0000380,01000600,0000.85,0000.32,0000.22,-000.42,-000.41,-000.05,0000.17,0000.05,-000.02,25.8,00.6,0673.5,34.6
2016-10-08T02:53:00Z,0000380,01000600,-000.30,0000.05,0000.20,-000.56,-000.09,0000.14,-000.10,-000.08,-000.44,25.8,00.7,0673.5,34.6
2016-10-08T02:54:00Z,0000380,01000600,0000.51,0000.19,0000.40,0000.52,-000.34,-000.11,-000.01,0000.01,0000.49,25.8,00.8,0673.5,34.6
2016-10-08T02:55:00Z,0000380,01000600,0000.31,0000.22,0000.66,-000.02,-000.65,0000.31,-000.01,0000.19,-000.08,25.8,00.7,0673.5,34.6
2016-10-08T02:56:00Z,0000380,01000600,-001.38,-000.29,-000.56,0000.39,-000.20,-000.09,-000.09,0000.01,-000.04,25.8,00.7,0673.5,34.6
2016-10-08T02:57:00Z,0000380,40000600,,,,,,,,,,,,0673.3,34.6
2016-10-08T02:58:00Z,0000380,61000600,,,,,,,,,,25.8,00.6,0672.4,34.6
2016-10-08T02:59:00Z,0000380,21000600,,,,,,,,,,25.8,00.8,0672.4,34.6
2016-10-08T03:00:00Z,0000380,21000600,,,,,,,,,,25.8,00.7,0672.4,34.6
2016-10-08T03:01:00Z,0000380,21000600,,,,,,,,,,25.8,00.7,0672.4,34.6
2016-10-08T03:02:00Z,0000380,21000600,,,,,,,,,,25.8,00.8,0672.4,34.6
2016-10-08T03:03:00Z,0000380,61000600,,,,,,,,,,25.8,00.8,0672.4,34.6
2016-10-08T03:04:00Z,0000380,41000600,-000.76,0000.37,-000.17,-000.45,0000.06,-000.30,-000.36,-000.13,-000.15,25.8,00.9,0673.3,34.6
2016-10-08T03:05:00Z,0000380,01000600,-000.25,-000.12,0000.09,0000.09,-000.31,-000.05,0000.41,0000.24,0000.35,25.9,00.9,0673.4,34.6
2016-10-08T03:06:00Z,0000380,01000600,-000.33,0000.53,0000.24,-000.16,-000.08,0000.13,-000.15,0000.05,-000.15,25.9,00.8,0673.4,34.6
2016-10-08T03:07:00Z,0000380,01000600,-000.24,0000.43,0000.00,0000.09,0000.44,0000.35,-000.15,-000.05,-000.17,26.0,00.9,0673.4,34.6
2016-10-08T03:08:00Z,0000380,01000600,-001.32,0000.48,-000.09,0000.50,0000.06,0000.22,0000.11,-000.04,0000.07,26.0,00.9,0673.4,34.6
2016-10-08T03:09:00Z,0000380,01000600,0000.56,-000.38,0000.50,0000.16,-000.08,0000.27,0000.12,0000.04,0000.09,26.0,00.9,0673.4,34.6
2016-10-08T03:10:00Z,0000380,01000600,-000.78,0000.57,0000.65,0000.02,0000.09,0000.30,-000.01,0000.02,-000.05,26.0,00.9,0673.4,34.6
2016-10-08T03:11:00Z,0000380,01000600,0000.53,0000.56,0000.03,0000.27,0000.42,0000.27,0000.10,0000.09,0000.13,26.0,00.9,0673.4,34.6
2016-10-08T03:12:00Z,0000380,01000600,-000.41,0000.05,-000.08,-000.24,-000.31,0000.17,-000.01,0000.08,0000.19,26.0,00.9,0673.4,34.6